Date String (YYYY-MM-DD hh:mm:ss) UTC,Instrument flags,absolute air pressure of the measurement (hPa),sample flow rate (lpm),inlet stack bypass flow (lpm),air temperature of the measurement (°C),ambient temperature measured by the external sensor (°C),aerosol sample conditioner tube jacket temperature (°C),OPC LED temperature (°C),internal box temperature (°C),relative humidity of the measurement (%),span deviation,mass concentration of particles derived from Lorenz-Mie calculation of OPC scattering (μg/m³),mass concentration of particles derived from Lorenz-Mie calculation of OPC scattering (μg/m³),mass concentration of particles derived from Lorenz-Mie calculation of OPC scattering (μg/m³)
DateTimeUTC,F1_M11,P_M11,Q1_M11,Q2_M11,T1_M11,T2_M11,T3_M11,T4_M11,T5_M11,U1_M11,ZSPAN_M11,X0_M11,X2_M11,X1_M11
2023-06-26 15:00:00,SystemResetWarning,0831.3,5.00,000.00,029.8,026.1,000.0,038.4,031.0,29.1,0002.6,0017.06,0006.55,0004.95
2023-06-26 15:01:00,SystemResetWarning,0831.3,5.00,000.00,029.8,026.5,000.0,038.4,031.1,29.1,0002.9,0017.19,0006.73,0004.97
2023-06-26 15:02:00,SystemResetWarning,0831.3,5.00,000.00,029.8,026.8,000.0,038.4,031.1,29.2,0002.9,0016.87,0006.75,0004.99
2023-06-26 15:03:00,SystemResetWarning,0831.3,4.99,000.00,029.8,027.1,000.0,038.4,031.1,28.3,0002.9,0017.31,0006.74,0005.00
2023-06-26 15:04:00,SystemResetWarning,0831.3,5.01,000.00,029.8,027.4,000.0,038.4,031.2,28.5,0003.1,0017.16,0006.76,0005.01
2023-06-26 15:05:00,SystemResetWarning,0831.3,5.01,000.00,029.8,027.6,000.0,038.4,031.2,28.7,0002.7,0017.36,0006.78,0005.01
2023-06-26 15:06:00,SystemResetWarning,0831.3,5.00,000.00,029.8,027.7,000.0,038.4,031.2,28.7,0001.1,0017.72,0006.81,0005.02
2023-06-26 15:07:00,SystemResetWarning,0831.3,5.00,000.00,029.8,027.9,000.0,038.4,031.3,29.6,0000.5,0017.94,0006.89,0005.03
2023-06-26 15:08:00,SystemResetWarning,0831.3,5.00,000.00,029.8,028.0,000.0,038.4,031.3,29.8,0001.4,0019.03,0006.99,0005.05
2023-06-26 15:09:00,SystemResetWarning,0831.3,4.99,000.00,029.8,028.1,000.0,038.4,031.3,29.4,0000.2,0019.52,0007.07,0005.06
2023-06-26 15:10:00,SystemResetWarning,0831.3,4.99,000.00,029.8,028.2,000.0,038.4,031.3,29.7,0000.0,0019.68,0007.09,0005.08
2023-06-26 15:11:00,SystemResetWarning,0831.3,5.00,000.00,029.8,028.2,000.0,038.4,031.4,29.3,0000.0,0018.54,0007.03,0005.08
2023-06-26 15:12:00,SystemResetWarning,0831.3,5.00,000.00,029.9,028.3,000.0,038.4,031.4,30.0,0000.0,0017.81,0006.90,0005.08
2023-06-26 15:13:00,SystemResetWarning,0831.3,5.00,000.00,029.9,028.3,000.0,038.4,031.4,30.7,0000.0,0018.36,0006.92,0005.09
2023-06-26 15:14:00,SystemResetWarning,0831.3,5.00,000.00,029.9,028.4,000.0,038.4,031.4,30.0,0000.0,0017.89,0006.93,0005.09
2023-06-26 15:15:00,SystemResetWarning,0831.3,5.00,000.00,029.9,028.4,000.0,038.4,031.4,29.4,0000.0,0017.27,0006.86,0005.10
2023-06-26 15:16:00,SystemResetWarning,0831.3,5.00,000.00,029.9,028.5,000.0,038.4,031.5,29.1,0000.0,0017.11,0006.82,0005.10
2023-06-26 15:17:00,SystemResetWarning,0831.3,4.99,000.00,030.0,028.1,000.0,038.4,031.6,29.0,0000.0,0017.95,0006.85,0005.10
2023-06-26 15:18:00,SystemResetWarning,0831.2,5.00,000.00,030.0,026.3,000.0,038.4,031.6,29.2,0000.0,0018.20,0006.81,0005.12
2023-06-26 15:19:00,SystemResetWarning,0831.3,5.01,000.00,030.0,025.9,000.0,038.3,031.6,29.9,0000.0,0018.21,0006.78,0005.13
2023-06-26 15:20:00,SystemResetWarning,0831.3,5.01,000.00,029.9,026.2,000.0,038.3,031.3,30.4,0000.0,0017.71,0006.82,0005.14
2023-06-26 15:21:00,SystemResetWarning,0831.3,5.00,000.00,029.8,026.5,000.0,038.3,031.2,29.9,0000.0,0017.06,0006.82,0005.13
2023-06-26 15:22:00,SystemResetWarning,0831.3,5.00,000.00,029.8,026.8,000.0,038.4,031.2,30.1,0000.2,0017.24,0006.82,0005.14
2023-06-26 15:23:00,SystemResetWarning,0831.3,5.00,000.00,029.8,027.1,000.0,038.4,031.2,30.6,0000.3,0017.26,0006.77,0005.14
2023-06-26 15:24:00,SystemResetWarning,0831.2,5.00,000.00,029.8,027.4,000.0,038.4,031.2,30.8,0001.9,0016.16,0006.71,0005.13
2023-06-26 15:25:00,SystemResetWarning,0831.3,5.00,000.00,029.8,027.6,000.0,038.4,031.3,30.4,0003.0,0016.36,0006.69,0005.13
2023-06-26 15:26:00,SystemResetWarning,0831.3,5.00,000.00,029.8,027.8,000.0,038.4,031.3,30.9,0003.1,0016.72,0006.67,0005.12
2023-06-26 15:27:00,SystemResetWarning,0831.3,5.01,000.00,029.8,027.9,000.0,038.4,031.3,31.8,0003.1,0017.61,0006.74,0005.11
2023-06-26 15:28:00,SystemResetWarning,0831.1,5.00,000.00,029.9,028.1,000.0,038.4,031.4,31.1,0003.4,0017.79,0006.77,0005.12
2023-06-26 15:29:00,SystemResetWarning,0831.1,5.01,000.00,029.9,028.2,000.0,038.4,031.4,30.7,0003.5,0017.22,0006.69,0005.10
2023-06-26 15:30:00,SystemResetWarning,0831.1,5.01,000.00,029.9,028.3,000.0,038.4,031.4,29.2,0003.5,0017.80,0006.66,0005.09
2023-06-26 15:31:00,SystemResetWarning,0831.2,5.00,000.00,029.9,028.3,000.0,038.4,031.4,28.6,0003.8,0018.69,0006.57,0005.09
2023-06-26 15:32:00,SystemResetWarning,0831.2,4.98,000.00,029.9,026.9,000.0,038.4,031.5,29.7,0003.6,0018.56,0006.48,0005.09
2023-06-26 15:33:00,SystemResetWarning,0831.2,5.01,000.00,029.9,025.8,000.0,038.3,031.5,29.6,0003.6,0018.29,0006.44,0005.08
2023-06-26 15:34:00,SystemResetWarning,0831.1,5.00,000.00,029.9,026.0,000.0,038.3,031.3,29.3,0003.7,0018.02,0006.43,0005.06
2023-06-26 15:35:00,SystemResetWarning,0831.2,4.99,000.00,029.8,026.3,000.0,038.3,031.1,29.1,0003.4,0018.73,0006.41,0005.04
2023-06-26 15:36:00,SystemResetWarning,0831.2,5.00,000.00,029.8,026.6,000.0,038.3,031.1,29.0,0003.1,0018.42,0006.32,0005.02
2023-06-26 15:37:00,SystemResetWarning,0831.2,5.00,000.00,029.8,027.0,000.0,038.3,031.1,30.5,0002.7,0019.00,0006.27,0005.01
2023-06-26 15:38:00,SystemResetWarning,0831.2,5.01,000.00,029.8,027.2,000.0,038.3,031.2,30.1,0002.5,0018.58,0006.22,0005.01
2023-06-26 15:39:00,SystemResetWarning,0831.1,4.99,000.00,029.8,027.5,000.0,038.3,031.2,29.6,0002.3,0017.39,0006.19,0005.00
2023-06-26 15:40:00,SystemResetWarning,0831.1,4.99,000.00,029.8,027.7,000.0,038.3,031.2,29.6,0002.5,0017.20,0006.20,0004.99
2023-06-26 15:41:00,SystemResetWarning,0830.9,5.00,000.00,029.8,027.8,000.0,038.3,031.2,29.8,0002.9,0016.87,0006.19,0004.98
2023-06-26 15:42:00,SystemResetWarning,0830.9,5.01,000.00,029.8,028.0,000.0,038.3,031.3,30.2,0002.6,0016.52,0006.17,0004.97
2023-06-26 15:43:00,SystemResetWarning,0831.0,5.00,000.00,029.8,028.1,000.0,038.3,031.3,30.1,0002.4,0017.25,0006.20,0004.97
2023-06-26 15:44:00,SystemResetWarning,0831.1,5.00,000.00,029.9,028.0,000.0,038.3,031.4,31.1,0001.0,0017.44,0006.22,0004.97
2023-06-26 15:45:00,SystemResetWarning,0831.1,4.98,000.00,029.9,026.3,000.0,038.3,031.4,30.6,0000.0,0017.98,0006.25,0004.98
2023-06-26 15:46:00,SystemResetWarning,0831.1,5.00,000.00,029.8,024.8,000.0,038.2,031.4,31.0,0000.3,0018.38,0006.28,0005.00
2023-06-26 15:47:00,SystemResetWarning,0831.1,5.01,000.00,029.8,024.8,000.0,038.2,031.2,30.6,0000.0,0019.88,0006.32,0005.02
2023-06-26 15:48:00,SystemResetWarning,0831.1,5.01,000.00,029.6,025.2,000.0,038.2,030.9,30.6,0000.0,0019.27,0006.39,0005.03
2023-06-26 15:49:00,SystemResetWarning,0831.0,4.99,000.00,029.6,025.6,000.0,038.2,030.8,30.9,0000.0,0019.56,0006.41,0005.05
2023-06-26 15:50:00,SystemResetWarning,0830.9,5.00,000.00,029.6,026.1,000.0,038.2,030.8,31.0,0002.7,0020.05,0006.41,0005.07
2023-06-26 15:51:00,SystemResetWarning,0830.8,5.01,000.00,029.5,026.5,000.0,038.1,030.9,31.4,0002.8,0020.78,0006.48,0005.10
2023-06-26 15:52:00,SystemResetWarning,0830.9,5.00,000.00,029.5,026.8,000.0,038.1,030.9,31.5,0002.5,0021.17,0006.49,0005.11
2023-06-26 15:53:00,SystemResetWarning,0830.9,4.99,000.00,029.5,027.1,000.0,038.1,031.0,31.7,0002.4,0020.37,0006.56,0005.12
2023-06-26 15:54:00,SystemResetWarning,0830.9,5.01,000.00,029.6,027.4,000.0,038.1,031.0,31.8,0002.3,0019.56,0006.61,0005.14
2023-06-26 15:55:00,SystemResetWarning,0831.0,4.99,000.00,029.6,027.6,000.0,038.1,031.0,32.6,0002.5,0019.54,0006.62,0005.15
2023-06-26 15:56:00,SystemResetWarning,0830.9,5.00,000.00,029.6,027.7,000.0,038.1,031.1,32.6,0002.5,0019.45,0006.63,0005.17
2023-06-26 15:57:00,SystemResetWarning,0830.9,5.01,000.00,029.6,027.9,000.0,038.2,031.1,32.4,0002.8,0019.15,0006.59,0005.18
2023-06-26 15:58:00,SystemResetWarning,0830.9,5.00,000.00,029.6,028.0,000.0,038.2,031.1,31.4,0002.6,0019.61,0006.61,0005.19
2023-06-26 15:59:00,SystemResetWarning,0830.9,5.00,000.00,029.6,028.1,000.0,038.2,031.2,30.1,0002.2,0019.51,0006.57,0005.20
